星链-2745 (STARLINK-2745 )

导读

STARLINK-2745是美国太空探索技术公司Starlink卫星互联网项目的组网卫星,于2021年5月26日发射升空,属于星链计划低轨星座的组成部分。该卫星运行在近地轨道,旨在为全球范围提供高速卫星互联网接入服务,帮助填补偏远地区网络覆盖空白,是星链大规模组网进程中发射的卫星之一。

Basic Information
目录编号:
48671
目录名称:
STARLINK-2745
国际标识:
2021-044AK
轨道中心:
EARTH
卫星名称:
星链-2745
卫星全名:
星链-2745 (STARLINK-2745 )
卫星状态:
在轨 (已飞行1934 天)
发射日期:
2021-05-26 UTC
国别 :
美国 (US)
星等 :
--
This satellite is enrolled in the Space Conjunction Data Service (SCDS) and the current flight risk assessment level is: No High Risk
Orbit Information
数据来源 国际轨道数据 AOE轨道数据
星历时间 2026-09-11T13:09:51+0800
11小时前
查看轨道信息
2026-09-06T07:00:00+0800
5天前
查看轨道信息
半长轴 6848.882km 6848.908km
偏心率 0.0001173 0.0001229
轨道倾角 53.161° 53.158°
近地点辐角 91.449° 67.759°
升交点赤经 332.152° 356.628°
平近点角 268.665° 89.215°
近地点 469.941km 469.929km
远地点 471.549km 471.613km
周期 94.013分钟 94.014分钟
每日圈数 15.316986 15.316899
Detailed Information
固有亮度:
5
最大亮度:
2.5
卫星平台:
Starlink V1.0
覆盖范围:
全球
运营商:
太空探索技术公司
运营商所在国:
美国
制造商(研发单位):
太空探索技术公司
制造商所在国:
美国
使用方式:
暂无
Satellite Introduction
星链(Starlink)计划是由太空探索技术公司(SpaceX)提出的一个巨型低轨卫星互联网星座项目,计划在2019年至2024年间在太空搭建由约1.2万颗卫星组成的“星链”网络,其中1584颗将部署在地球上空550千米处的近地轨道,并从2020年开始工作。该卫星仍在工作。
2D Orbit Map
3D Orbit Map
Orbit Altitude Analysis Chart
Orbit Inclination Analysis Chart
Orbit Comprehensive Analysis Chart
View Comprehensive Chart
Conjunction Data List
Event ID Objects TCA Miss Dist (km) Collision Risk Probability Collision Risk Index (CRI) Action
CDM_260912-164804-867105-306921
2026-09-12T
16:48:18+0000
2.876 km
极远距离
1.265189E-6 低风险 0.37
CDM_260906-072404-867106-878221
2026-09-06T
07:24:01+0000
2.666 km
极远距离
1.23014E-6 低风险 0.37
CDM_260912-064504-867106-931521
2026-09-12T
06:45:47+0000
2.986 km
极远距离
9.440971E-7 极低风险 0.35
Miss Distance Evolution Trend with All Objects
Collision Probability Evolution Trend with All Objects